Wind_Speed
21 21 21 21 21 20 20 21 21 21 21 22 22 23 24 24 25 25 25 25 24 23 22 22 21 20 18 18 17 17 17 17 17 15 13 15 16 15 14 14 15 16 18 19 20 22 23 25 28 30 35 38 42 42 38 39 40 40 42 42 44 44 42 40 39 40 40 38 38 37 35 34 30 26 24 24 26 26 27 28 26 25 26 23 13 11 13 13
22 22 22 21 21 21 21 21 21 21 22 22 23 23 24 24 24 24 24 24 23 21 20 20 18 17 16 15 14 15 15 14 13 12 11 11 11 12 11 10 11 12 13 15 17 19 19 21 25 30 35 38 41 41 39 39 40 43 43 43 47 46 41 38 36 33 33 33 34 34 32 29 23 19 19 22 25 25 27 30 30 27 27 23 16 16 15 15
22 22 22 22 22 22 21 21 21 22 22 22 23 24 24 24 24 24 23 22 21 20 18 17 16 15 14 13 13 13 13 12 10 9 9 7 7 8 7 7 7 7 8 11 13 14 15 18 23 29 35 38 41 40 41 40 41 44 43 44 48 44 38 38 36 30 26 23 24 26 26 26 22 19 21 26 29 27 28 31 32 32 30 26 22 19 16 20
23 23 22 22 22 22 22 22 22 22 22 23 23 24 24 24 24 23 22 21 20 18 17 16 14 13 12 12 13 13 12 10 8 8 7 6 5 5 5 5 4 4 5 7 9 11 13 16 22 28 33 38 39 39 42 42 41 43 44 46 44 38 39 40 37 32 29 25 24 24 24 27 27 26 27 27 28 29 27 28 29 31 31 29 24 20 19 24
24 23 23 23 23 23 22 22 22 22 23 23 24 24 24 24 23 22 21 20 19 18 16 15 13 13 12 12 13 13 11 8 7 8 7 4 3 3 4 4 4 4 4 6 8 10 13 17 21 26 30 35 37 38 42 43 41 41 45 47 39 35 38 38 37 35 33 30 29 30 29 29 29 31 29 24 25 29 29 26 26 28 29 27 19 17 21 24
24 24 24 23 23 23 23 22 22 23 23 24 24 24 24 23 22 21 20 20 19 17 15 14 13 13 13 12 13 13 11 8 7 9 8 4 2 2 3 3 5 5 4 6 7 10 14 16 19 22 25 28 31 36 40 42 40 41 45 44 39 37 33 29 31 35 35 35 34 33 31 31 31 33 31 26 22 24 29 31 33 33 28 20 17 18 23 24
25 25 24 24 24 24 23 23 23 23 24 24 24 24 23 22 21 20 20 19 18 17 15 13 13 13 14 13 14 13 11 8 8 10 9 5 3 3 3 3 4 5 6 6 7 10 14 16 17 17 19 21 24 29 34 39 40 41 44 42 40 40 34 26 23 27 31 36 37 34 33 34 35 33 30 28 21 17 24 32 35 36 28 20 19 22 23 22
26 25 25 24 24 24 23 23 23 23 24 24 24 23 22 21 20 20 19 18 18 16 14 12 12 13 14 13 13 12 11 9 8 9 8 6 5 5 5 5 4 5 7 8 9 11 13 14 14 11 13 16 18 21 22 28 36 41 42 41 40 40 38 31 25 24 27 32 35 36 38 39 38 36 33 29 21 18 19 27 29 30 30 26 21 23 25 26
26 25 25 25 24 24 23 23 23 23 24 24 23 22 21 20 20 19 18 17 16 14 13 11 10 10 11 11 11 11 10 9 9 8 5 4 5 6 5 5 4 5 8 10 11 12 12 11 11 9 12 14 15 19 18 18 26 33 37 38 40 40 39 37 32 29 28 30 32 36 41 44 40 37 37 31 25 22 21 26 29 27 31 31 25 26 29 28
26 26 25 25 24 23 23 23 23 24 24 23 23 21 20 20 19 18 17 16 14 13 11 10 10 9 8 8 8 9 10 11 12 10 5 1 2 5 5 5 5 5 8 12 13 15 13 9 9 11 14 14 15 20 21 18 19 22 25 32 40 42 39 39 37 34 32 31 31 34 38 43 42 35 37 34 27 25 24 30 32 27 25 24 22 26 32 29
26 26 26 25 24 23 23 23 24 24 23 23 22 21 20 19 18 17 16 14 12 11 10 10 9 8 7 6 5 8 10 12 13 12 9 2 2 3 4 5 5 6 7 12 15 17 15 9 9 11 12 13 16 20 23 20 19 19 20 25 33 39 39 39 39 36 37 36 33 33 33 36 41 37 37 34 24 24 25 30 32 27 22 19 19 23 26 28
27 26 25 24 23 23 23 24 24 24 23 23 21 20 19 18 17 16 14 13 11 10 9 10 9 9 7 5 7 9 10 11 10 10 9 5 3 3 3 3 4 5 6 10 16 18 17 14 12 11 11 13 15 18 21 19 16 19 21 22 25 29 35 37 39 39 40 41 36 32 30 32 40 42 39 32 21 20 24 28 32 28 21 18 20 23 23 25
27 26 25 24 23 23 24 24 24 24 23 22 21 20 18 17 16 14 13 11 9 9 9 10 11 11 8 6 9 10 10 11 11 10 8 5 4 2 2 1 2 5 6 7 14 18 19 20 16 13 13 14 13 13 17 15 12 16 19 20 20 21 29 34 35 36 40 45 41 31 29 33 40 47 42 31 23 21 23 28 32 26 18 16 19 23 22 23
27 26 24 23 23 24 24 24 24 24 23 21 20 19 17 15 14 13 12 10 8 8 10 11 12 12 10 9 11 11 11 12 14 14 10 4 3 3 2 2 3 4 3 4 11 16 19 20 18 16 16 14 12 12 14 12 9 12 15 17 18 16 23 32 32 31 35 44 45 33 31 35 38 45 41 31 27 25 24 26 30 26 18 17 19 23 24 22
27 25 24 24 24 24 25 25 24 24 22 20 18 17 15 14 13 11 10 8 8 9 10 11 11 11 12 13 14 13 13 14 15 16 12 7 3 4 4 4 7 7 5 2 6 13 15 16 16 17 18 16 13 12 12 10 7 10 12 14 17 16 17 24 30 31 30 37 43 36 35 38 36 38 36 31 29 27 26 26 28 27 21 17 19 24 26 23
26 25 24 24 24 24 25 25 24 24 22 20 17 15 14 13 11 10 9 7 8 9 8 9 9 9 13 16 16 17 14 13 14 15 13 9 6 6 6 3 6 8 8 7 3 4 9 12 13 13 14 17 16 14 11 10 9 9 9 10 11 13 14 17 23 29 26 28 39 41 40 39 36 35 33 31 31 30 30 28 29 30 23 18 21 27 27 26
26 25 24 24 24 24 25 25 25 24 23 20 16 14 14 12 10 9 8 6 6 8 8 8 8 8 12 17 19 19 14 12 14 14 12 11 9 9 8 6 4 7 8 8 7 4 2 4 8 8 8 12 17 16 12 10 10 8 9 9 7 9 11 12 16 23 26 25 31 41 45 43 37 34 33 30 30 31 30 29 33 35 30 25 25 31 29 27
27 25 25 24 24 24 24 24 25 25 23 21 18 15 13 11 9 8 7 5 6 9 8 10 12 10 11 19 22 17 11 11 12 12 13 12 12 13 11 9 8 9 9 8 6 5 5 5 3 3 4 9 13 14 12 10 9 8 7 7 8 9 10 11 11 16 26 26 25 31 41 46 41 36 34 27 26 30 27 24 30 36 38 34 30 32 31 28
27 26 25 24 24 24 24 24 24 24 22 20 18 16 12 10 7 7 6 5 6 8 9 11 13 11 11 18 19 13 8 10 12 13 13 11 11 11 10 9 10 9 8 8 7 5 4 4 4 3 5 8 11 13 15 13 9 9 10 9 11 13 12 12 12 14 20 24 26 26 29 39 43 42 39 29 24 26 21 16 24 33 37 36 32 32 32 31
27 26 25 24 24 24 24 25 23 23 19 16 14 11 10 9 7 7 8 8 8 8 11 11 9 9 10 14 17 12 6 7 11 12 11 10 10 10 7 8 11 10 9 10 9 7 5 5 6 4 2 4 8 11 13 12 11 11 11 12 14 15 15 12 12 14 16 19 26 26 23 28 38 44 42 35 28 27 22 17 23 33 35 34 32 30 32 33
27 26 25 23 23 23 24 25 24 22 18 15 13 8 8 10 8 7 8 11 11 8 10 11 9 8 7 11 16 14 7 5 7 8 7 8 9 9 6 8 12 11 11 12 11 8 8 9 7 5 4 3 4 6 9 11 13 15 15 16 17 18 18 14 12 14 16 20 27 28 24 22 30 42 43 39 34 32 30 24 22 28 35 38 35 30 30 30
27 26 24 23 22 23 23 23 23 21 17 15 13 10 10 11 9 7 7 10 12 10 10 11 8 7 7 10 14 13 10 7 5 6 6 3 4 8 7 6 9 9 8 9 10 8 9 11 10 9 9 8 8 7 8 10 11 15 16 16 17 16 16 15 14 14 12 15 23 30 30 25 25 37 43 43 38 34 35 33 27 24 28 30 30 32 31 29
26 26 24 22 22 23 23 22 21 19 16 15 13 11 11 11 10 7 7 8 10 11 9 11 10 7 7 11 11 10 12 12 11 10 7 5 5 7 8 6 7 5 5 9 12 10 8 9 10 12 11 9 11 9 8 8 7 8 8 8 8 8 9 12 14 14 10 8 15 24 32 30 27 31 39 45 39 33 36 38 35 29 25 21 21 30 36 31
26 25 24 22 21 22 22 21 20 18 15 13 12 11 10 10 9 6 6 8 10 10 6 10 13 8 7 12 11 11 14 14 15 12 6 6 7 6 6 7 5 4 7 11 13 11 10 9 9 11 10 9 12 12 10 9 7 7 6 5 5 6 8 12 13 13 11 8 8 14 23 30 35 34 34 40 39 32 34 38 39 35 30 22 18 22 31 30
26 25 24 22 21 22 22 20 19 17 14 11 10 11 10 9 7 6 6 7 8 8 6 8 12 7 7 11 10 13 15 13 12 9 5 6 8 6 4 5 5 6 9 10 11 9 8 7 7 10 9 9 10 11 9 8 9 9 7 6 6 7 10 11 11 11 10 10 3 5 9 17 32 39 36 37 39 34 33 36 38 37 33 29 25 22 23 26
26 24 23 22 21 22 21 19 17 14 13 11 9 10 9 8 7 5 6 8 9 7 6 7 9 10 10 9 8 12 13 11 10 8 4 6 8 9 7 3 4 6 8 9 8 6 6 5 6 8 7 5 7 7 4 6 10 9 6 7 7 8 11 9 8 7 7 10 9 7 7 7 18 32 36 35 37 37 36 36 37 38 35 32 31 27 24 25
26 24 23 21 21 21 19 18 16 12 10 10 9 8 7 6 6 3 3 6 9 8 7 7 7 11 12 8 10 12 11 12 10 8 5 5 6 8 7 3 4 5 6 9 9 5 6 5 5 6 5 3 6 6 3 6 10 7 6 9 10 10 12 9 8 7 5 11 15 13 9 8 10 18 28 32 34 37 39 40 39 38 37 33 27 24 25 25
26 24 22 21 21 21 19 17 14 10 8 10 10 7 5 5 4 3 2 2 7 10 10 10 8 12 14 11 12 11 8 10 9 7 7 7 7 7 7 6 7 9 8 10 12 8 6 7 6 6 5 3 4 6 6 7 6 7 9 11 10 12 15 13 8 8 7 9 11 8 5 6 7 8 16 24 30 35 39 41 41 38 38 36 27 19 20 23
26 23 21 21 20 20 20 17 12 8 8 10 9 5 6 6 4 3 4 2 9 12 13 14 12 13 12 9 9 8 7 7 8 10 10 9 10 9 9 10 11 11 8 9 14 12 9 10 9 9 7 6 6 7 8 8 6 10 12 11 10 12 13 11 7 8 7 6 7 4 4 1 7 7 9 12 20 29 36 40 42 39 38 39 34 26 22 20
25 22 21 22 21 21 19 16 11 7 7 9 8 6 6 7 6 3 4 6 11 12 16 16 10 10 9 7 9 11 10 8 9 11 9 8 9 9 10 10 10 11 8 6 10 11 11 12 11 10 9 9 10 10 9 8 9 11 12 13 14 14 13 11 8 8 6 4 3 1 4 4 4 8 9 8 11 18 26 34 39 40 40 39 37 35 31 24
25 20 19 21 21 20 17 13 10 7 7 7 7 8 5 7 11 6 2 11 10 13 21 14 9 10 8 10 12 13 12 10 10 10 8 9 10 10 10 8 9 11 7 5 6 6 8 10 10 10 9 10 11 11 10 10 11 9 8 11 12 12 13 10 7 5 2 3 2 2 5 6 3 8 10 8 9 11 16 24 31 33 36 37 36 36 34 28
24 19 18 20 19 17 15 12 11 9 8 7 8 11 6 4 11 8 7 13 10 17 23 12 10 13 9 9 11 11 12 9 10 11 10 11 12 13 12 9 11 10 7 8 11 10 7 4 4 6 9 11 13 12 10 10 11 8 7 8 6 5 7 5 4 2 2 5 6 5 11 8 7 14 16 12 11 13 13 18 25 27 31 35 34 33 34 29
24 19 17 18 17 15 13 10 11 10 9 9 9 11 9 5 7 9 12 14 13 19 18 6 8 13 10 10 10 11 12 9 11 13 11 11 11 12 11 8 11 9 6 10 13 13 10 6 4 4 5 7 11 14 13 10 8 4 5 6 2 2 3 2 3 2 3 8 13 12 11 7 9 15 20 19 16 16 15 17 21 24 28 31 31 31 32 30
23 19 17 17 15 13 11 9 10 9 9 11 9 10 13 9 5 10 14 16 18 19 10 4 6 7 7 12 11 13 15 12 15 15 10 7 8 11 11 10 14 11 7 9 10 11 8 4 7 9 7 8 8 10 12 14 12 7 4 4 4 1 1 2 2 1 3 9 16 14 7 2 6 12 18 22 22 20 18 19 21 23 27 28 28 29 31 30
23 19 16 15 13 11 10 10 12 10 9 9 8 11 13 9 7 13 15 17 20 18 8 3 6 3 5 11 10 13 15 15 18 15 7 5 7 10 12 11 12 10 8 9 7 8 7 5 6 7 8 9 9 7 8 13 12 11 9 6 4 3 1 3 4 6 7 7 12 12 8 10 14 18 21 21 24 24 22 21 21 23 26 26 26 29 30 29
22 18 15 14 11 9 8 9 10 10 9 7 7 12 13 10 12 15 16 18 18 16 10 5 7 8 12 15 13 14 15 16 19 15 8 6 5 5 9 8 7 6 8 10 7 7 8 8 8 8 7 6 5 6 5 10 9 8 9 7 5 5 6 6 6 8 7 4 7 10 15 22 22 22 24 22 24 27 26 25 21 21 25 25 25 26 27 28
20 15 14 13 10 7 6 6 8 9 10 10 9 10 10 12 16 16 17 17 14 13 12 11 11 13 17 19 17 18 18 17 20 17 11 7 4 5 5 4 2 2 7 8 3 5 8 13 11 6 4 5 3 4 4 6 11 11 7 5 6 8 9 6 3 4 3 2 6 9 17 24 19 17 22 22 23 27 28 30 27 23 25 28 27 26 26 28
19 14 14 13 8 7 8 7 9 9 9 11 11 9 9 12 16 17 16 16 16 13 12 13 13 13 16 18 18 19 20 20 21 20 15 10 9 13 11 3 4 4 4 3 2 3 7 11 9 3 4 6 4 3 4 4 8 10 8 5 4 4 6 5 2 2 2 2 4 7 13 20 23 25 28 24 22 24 26 30 31 28 27 30 31 29 26 27
19 14 14 12 7 6 8 7 6 6 7 10 12 10 10 12 14 16 16 17 18 16 12 13 14 14 16 18 18 20 21 21 22 21 16 11 12 15 11 5 6 7 4 2 4 6 4 6 8 5 6 8 5 2 4 4 4 5 8 8 7 8 9 9 7 4 3 2 3 5 5 16 32 36 33 30 27 26 25 27 30 30 29 31 33 30 26 26
19 16 15 13 7 4 7 7 5 5 7 10 10 9 10 11 12 15 17 19 18 15 13 13 14 16 16 17 18 20 21 23 23 20 16 14 17 15 8 6 8 8 8 4 6 7 4 4 10 11 9 7 5 3 2 3 3 4 7 9 11 13 11 10 10 11 9 4 2 2 3 21 39 35 30 32 31 30 30 29 29 29 29 31 32 31 27 26
18 16 16 15 10 5 6 8 7 8 8 6 6 8 10 11 11 14 17 18 16 15 14 12 13 15 16 17 17 19 22 23 21 18 17 17 18 16 11 11 10 8 9 8 7 8 6 6 13 16 14 10 7 6 6 6 7 7 8 9 10 13 13 9 6 13 17 10 7 4 5 30 46 36 30 31 28 29 29 28 29 29 29 30 31 30 27 25
17 15 16 16 12 7 7 9 10 9 6 4 5 7 8 9 11 14 17 16 15 15 14 13 13 13 14 16 17 19 23 21 17 18 19 18 17 16 14 10 6 6 6 7 7 7 8 10 15 18 17 15 11 7 9 11 12 10 10 11 11 11 15 12 4 8 12 11 13 7 7 34 49 38 34 33 29 30 28 27 28 28 30 32 31 31 29 24
17 14 15 16 12 8 8 11 11 11 10 8 6 6 8 9 10 13 14 15 15 14 15 15 13 12 13 16 17 21 22 17 15 19 20 18 17 14 10 6 5 5 5 5 6 5 6 8 12 16 19 17 11 5 7 11 12 12 10 10 10 8 10 10 8 11 11 11 16 7 7 30 38 30 32 32 30 33 31 30 31 30 32 33 33 34 32 29
17 13 13 14 11 8 10 11 9 10 12 11 7 8 10 10 12 11 11 14 16 15 14 15 13 11 14 16 17 20 21 17 17 20 20 20 18 15 10 7 7 7 7 7 6 5 5 6 9 13 14 13 7 3 1 4 7 10 10 9 9 9 11 14 15 16 11 11 15 8 13 29 27 20 27 29 28 33 32 31 33 33 36 36 36 37 35 34
17 12 11 11 9 9 12 10 6 6 10 10 9 10 9 11 14 11 9 13 14 13 13 14 12 11 13 15 16 17 19 19 18 18 20 21 18 16 13 9 7 7 5 7 8 8 9 10 10 9 4 4 5 4 6 10 13 14 14 14 14 14 18 20 20 17 11 10 15 18 27 44 43 36 39 38 37 39 38 37 36 36 38 39 39 40 38 36
16 12 10 10 8 8 9 7 5 6 10 10 10 8 8 12 14 9 8 12 12 11 13 13 13 12 11 14 15 16 19 21 20 18 20 21 18 17 14 8 7 9 7 3 7 9 11 13 13 11 11 12 16 17 17 19 21 22 20 18 18 18 20 22 21 20 18 19 28 33 33 46 58 54 51 49 48 48 47 47 45 43 43 42 42 43 42 39
16 14 12 10 7 5 4 4 4 6 8 9 8 6 9 14 13 7 8 11 10 10 13 15 14 11 11 14 16 18 23 23 21 20 20 19 18 16 12 7 6 8 8 6 5 6 11 14 12 13 15 16 18 19 18 18 21 23 21 20 18 17 20 22 23 26 25 22 33 40 32 40 58 59 54 54 53 52 52 51 51 50 49 47 47 47 45 43
15 14 13 12 9 5 2 3 5 7 9 8 7 8 10 14 13 8 8 9 9 10 13 15 14 9 10 15 17 20 24 25 23 22 20 19 18 14 10 6 5 7 8 8 8 9 12 15 15 16 19 20 20 18 16 17 18 17 18 17 16 16 18 20 21 25 26 26 35 42 40 46 58 59 56 57 56 55 55 54 53 53 53 53 52 53 51 47
14 14 13 12 11 7 3 3 6 8 7 4 7 9 9 13 15 11 7 7 8 10 12 15 14 10 11 15 16 19 23 24 24 23 21 21 20 18 14 8 6 8 10 10 10 10 12 15 16 18 21 21 18 15 15 16 16 16 15 11 12 14 14 16 20 22 23 30 37 40 41 50 57 55 55 57 56 55 56 55 55 55 54 54 54 56 57 52
13 13 13 11 9 7 4 3 4 4 3 2 7 9 8 12 16 12 5 4 8 10 11 14 15 13 13 14 16 18 19 22 24 23 21 20 20 20 16 10 7 9 10 10 8 9 12 15 15 17 20 19 16 16 19 19 17 15 11 7 11 17 17 21 27 27 26 30 33 33 39 50 51 46 46 47 47 49 50 50 53 56 57 57 55 56 59 58
13 13 13 11 9 6 2 4 8 6 3 4 7 9 11 13 14 10 3 4 8 9 11 13 15 15 14 15 17 18 17 18 19 18 17 15 13 15 13 8 8 9 10 10 9 11 13 16 17 17 18 18 19 20 22 23 19 10 3 5 17 24 26 30 32 31 30 31 31 31 36 41 40 39 42 42 41 46 50 49 48 51 55 57 56 56 59 61
14 14 13 11 9 7 3 4 10 10 7 8 8 9 13 13 9 6 3 4 6 7 9 12 14 16 17 18 19 17 14 14 13 12 12 10 11 15 15 14 14 14 14 13 12 14 14 15 19 17 16 18 21 22 22 19 13 5 3 14 31 35 34 35 35 32 29 28 30 32 34 37 41 44 46 44 41 41 45 47 46 47 50 52 53 54 58 63
Wind_Direction
346 345 343 341 339 338 336 335 334 333 332 331 331 330 329 328 326 325 324 323 322 320 316 312 309 308 309 309 311 309 309 311 308 301 290 280 276 272 262 256 258 256 250 245 237 233 229 224 218 213 213 215 217 215 213 215 213 211 211 215 221 222 223 225 226 229 232 235 235 236 235 241 248 240 235 243 250 254 256 250 240 243 248 243 230 203 205 218
347 346 344 342 340 338 336 335 335 334 333 332 331 330 329 328 327 326 325 324 322 320 317 313 312 312 314 317 319 318 321 322 312 305 297 287 280 273 266 254 250 248 244 241 236 231 225 220 214 209 209 211 215 213 211 213 213 213 212 215 222 222 222 224 225 228 232 236 236 238 238 236 236 231 230 245 251 251 252 242 231 236 233 217 200 196 201 200
347 346 345 342 340 338 337 336 336 335 333 332 332 331 330 330 329 327 325 324 322 320 318 315 314 314 318 323 326 329 334 331 321 319 314 301 288 278 278 265 249 242 233 228 228 224 215 213 212 209 208 209 212 211 210 212 212 215 214 216 222 223 222 223 222 221 222 226 232 235 237 232 222 222 236 251 256 251 248 241 232 234 228 207 193 199 203 199
346 346 345 343 341 339 338 337 336 336 334 333 333 332 332 332 331 328 324 323 321 320 319 317 314 314 319 327 331 334 338 337 335 331 320 315 313 296 286 277 259 240 222 217 215 205 198 203 207 208 208 209 210 210 211 211 211 214 216 218 222 223 224 224 220 217 213 209 215 223 231 230 222 229 244 255 257 250 245 244 241 232 212 192 192 203 201 200
346 345 344 343 341 339 338 337 337 336 335 335 335 335 334 333 331 328 325 323 323 322 319 316 311 310 316 327 331 331 337 343 342 339 333 329 333 320 290 279 264 235 208 206 199 190 190 195 202 205 208 210 209 210 212 211 212 214 217 220 221 221 226 227 222 219 213 208 212 219 226 225 224 233 241 253 256 248 244 244 242 225 197 186 197 205 198 197
345 344 344 342 340 339 338 338 338 338 337 337 337 337 336 334 331 329 328 326 326 324 321 315 307 304 310 321 326 325 333 339 329 336 346 340 335 340 306 290 262 233 203 198 190 188 187 189 196 201 206 209 209 212 214 211 213 218 218 219 220 219 223 225 225 225 218 214 213 214 219 223 230 234 235 248 257 252 250 248 243 228 209 208 224 218 199 189
345 344 343 341 340 338 338 338 340 340 339 339 339 339 337 335 333 331 330 328 329 328 324 316 304 301 305 315 320 319 326 328 317 327 342 344 328 311 286 288 261 222 201 195 180 186 191 194 198 199 206 209 209 213 216 214 215 221 221 218 220 221 219 213 214 222 223 222 218 215 220 227 234 236 237 245 256 271 253 236 233 227 218 219 225 226 216 211
345 344 342 341 339 338 339 340 342 341 340 340 340 339 338 336 334 333 332 332 333 332 330 325 314 307 307 313 313 315 325 323 320 324 339 345 326 311 292 287 264 213 202 191 170 178 191 197 196 201 215 214 215 215 217 219 219 224 226 221 219 222 221 213 204 210 219 225 223 222 226 228 231 239 247 244 249 280 262 231 229 228 225 221 219 229 234 239
345 344 342 340 339 339 341 343 344 343 342 342 341 341 339 337 335 334 335 336 338 338 338 338 334 322 315 316 311 317 327 324 327 327 339 353 324 314 306 296 267 213 201 188 173 174 177 181 189 214 227 216 220 218 212 224 228 230 232 229 223 221 222 217 211 211 216 224 225 226 229 228 230 244 253 244 243 264 260 239 232 225 224 222 220 225 231 238
345 344 342 340 340 341 343 345 345 345 344 343 343 342 340 338 336 337 339 341 342 342 347 350 350 345 335 328 319 323 326 322 327 326 328 357 284 293 296 295 286 252 212 193 183 180 174 181 213 237 235 223 224 215 211 225 234 234 237 236 230 225 223 221 219 214 218 227 225 227 232 227 229 249 254 241 244 257 244 229 221 212 215 217 219 224 225 225
345 343 342 341 341 343 345 346 347 347 345 344 344 343 340 339 338 342 344 342 344 346 354 359 359 2 356 352 345 339 335 328 326 325 323 308 250 291 303 299 298 292 242 207 197 190 185 206 245 244 237 239 232 215 210 222 234 233 235 234 232 231 229 227 226 219 220 228 225 230 241 233 230 245 250 239 245 258 241 228 222 211 209 208 213 222 223 221
344 343 342 342 344 346 347 348 348 348 346 345 345 344 340 339 343 347 346 344 350 355 3 10 11 13 8 16 14 359 350 343 338 333 324 314 308 309 317 314 305 293 258 217 208 203 197 212 237 232 233 244 234 219 213 220 233 230 229 231 229 231 232 231 230 224 224 227 226 235 250 246 233 233 238 237 244 255 245 236 223 210 210 211 217 223 219 221
345 344 344 345 346 347 348 349 350 349 347 347 346 344 339 341 348 348 347 350 359 8 16 24 28 27 23 21 12 7 5 2 4 2 348 325 310 264 225 215 342 305 269 228 211 211 208 212 226 230 235 238 226 224 219 219 237 230 226 232 230 229 230 228 228 228 227 225 227 238 251 249 232 222 228 236 241 240 235 225 210 203 211 212 223 226 214 213
347 346 346 347 348 348 349 350 351 349 348 348 347 343 339 344 351 349 349 358 13 21 23 31 40 40 36 19 6 10 18 16 15 13 7 336 276 257 240 160 60 10 303 248 213 217 220 219 232 239 238 236 225 226 224 223 241 233 227 229 231 237 230 223 220 224 227 223 225 237 248 247 233 221 226 239 242 235 231 226 212 212 225 225 230 223 205 205
349 348 347 347 348 348 349 351 351 350 349 348 346 343 341 346 351 351 355 9 25 26 28 34 43 46 35 18 8 14 25 25 21 18 12 354 315 330 359 78 82 57 39 353 227 229 236 236 245 250 242 234 229 235 237 237 232 223 230 228 228 240 237 224 219 220 225 224 224 234 246 244 235 226 230 241 243 237 234 231 222 223 231 231 227 210 199 207
350 349 348 348 349 349 349 351 350 351 350 347 346 346 345 349 355 357 359 17 27 24 33 32 36 49 32 20 14 14 22 27 22 21 22 14 352 347 359 42 84 71 59 55 44 253 254 253 251 259 248 228 227 243 254 253 232 206 217 227 226 240 245 234 227 224 225 222 220 228 241 243 237 231 236 241 236 235 238 232 224 224 224 220 215 206 205 217
350 350 349 349 349 349 350 351 350 351 350 349 350 350 349 353 6 7 358 15 23 12 30 44 46 54 32 21 13 5 15 28 21 21 30 34 29 22 12 0 48 76 65 59 49 33 346 288 255 263 259 223 222 239 252 254 241 219 219 235 239 248 254 244 235 227 223 220 220 227 235 239 236 232 238 239 228 233 244 238 226 221 219 218 213 208 209 216
351 351 350 349 349 349 350 352 352 353 351 349 350 352 356 0 11 17 12 27 22 5 28 58 54 50 29 22 14 2 17 30 18 21 30 45 54 42 32 26 43 60 49 38 26 25 29 5 301 254 238 214 214 226 239 242 243 247 252 262 254 252 261 256 249 227 220 222 224 230 233 234 233 232 234 232 226 234 244 242 228 222 223 224 216 211 213 216
351 351 350 350 350 349 350 353 355 356 353 350 349 349 357 11 21 33 44 50 33 24 41 54 51 44 26 20 18 15 32 30 18 22 28 49 64 43 35 35 29 30 27 22 15 12 5 341 319 265 216 205 206 216 231 237 242 256 266 276 270 268 270 267 264 235 221 226 226 227 232 232 231 233 233 224 220 227 232 235 220 213 219 221 215 213 215 216
351 351 351 351 351 350 351 353 356 359 356 352 351 346 359 24 51 61 64 57 42 48 51 49 48 44 23 4 6 9 14 18 15 19 26 39 37 22 26 20 3 359 360 357 347 339 322 301 314 321 251 207 209 212 226 236 238 244 258 267 270 278 276 269 269 242 224 236 233 225 232 233 229 232 232 223 221 221 218 227 216 204 206 211 215 221 219 216
351 352 352 351 351 352 353 352 356 0 357 352 355 5 23 36 60 79 76 53 39 50 49 42 37 31 13 344 355 3 355 1 12 10 17 26 9 352 5 6 347 344 350 345 332 314 285 278 305 355 8 333 281 248 253 263 259 253 258 265 269 279 277 268 270 251 234 250 246 233 242 246 229 229 229 226 232 231 220 226 225 209 207 208 212 225 228 222
352 353 353 353 351 353 355 354 356 360 357 353 1 22 37 38 47 71 83 51 35 42 48 49 38 16 7 355 4 10 355 351 359 347 343 2 348 329 338 340 315 319 348 353 342 322 279 279 302 328 328 315 309 302 282 278 276 265 260 266 270 280 280 265 263 258 249 266 257 243 250 255 230 225 227 227 237 239 228 228 231 218 213 215 218 221 221 219
353 353 353 354 352 353 356 356 358 0 356 355 6 27 36 35 36 53 81 66 40 36 50 51 27 3 9 1 358 359 345 343 350 338 306 262 269 302 313 306 291 310 3 354 342 331 297 294 309 317 313 298 291 294 284 270 275 280 272 274 276 284 288 269 259 255 250 290 286 258 255 254 235 224 225 226 233 239 232 233 238 228 219 227 235 221 212 217
354 354 353 353 353 354 355 357 360 1 360 0 11 25 30 29 35 56 77 75 50 34 49 37 14 5 2 344 336 343 335 335 346 340 305 281 290 294 296 296 301 347 357 342 330 313 289 287 302 308 300 285 284 287 289 285 290 309 303 292 287 294 301 283 272 269 256 262 296 278 265 254 241 233 229 225 229 235 231 234 240 235 224 227 243 228 215 224
353 354 353 352 354 355 355 359 1 0 3 8 15 22 22 22 39 75 83 73 56 44 49 19 6 8 1 348 342 337 329 331 345 347 326 308 316 334 342 310 318 352 344 329 322 303 280 276 291 305 304 287 283 291 303 307 309 312 300 287 291 311 320 301 289 295 277 253 259 339 296 261 244 239 235 229 229 233 231 232 234 233 231 232 243 246 225 220
352 353 353 352 354 355 356 359 2 2 5 10 11 14 16 14 33 87 101 69 49 50 44 6 357 359 354 1 354 330 329 341 356 7 338 295 317 343 360 330 286 329 334 315 312 297 275 273 275 292 311 297 280 291 315 322 316 314 306 292 283 304 322 326 331 332 297 270 278 318 326 293 258 242 236 235 235 237 237 237 233 230 233 238 244 250 240 225
351 351 352 352 353 356 357 357 0 4 8 10 3 5 13 15 31 79 124 66 36 24 7 345 348 347 337 341 342 332 336 341 348 10 343 297 322 331 338 339 252 275 311 305 305 288 261 262 262 275 294 295 276 272 289 329 321 311 314 306 290 299 305 310 344 354 322 289 280 285 296 301 285 243 232 233 235 239 240 240 238 232 233 240 242 244 243 236
351 350 352 352 352 355 356 356 358 3 12 11 2 7 24 29 41 37 109 88 13 358 345 334 330 332 326 319 321 322 329 332 336 344 332 327 335 321 318 321 284 282 300 296 289 280 266 267 276 291 300 310 279 258 279 309 305 292 307 305 300 311 299 287 316 345 333 300 275 284 308 290 287 244 224 228 231 236 239 238 239 237 234 235 232 227 234 238
352 349 350 351 353 355 354 354 358 6 17 13 8 20 33 40 46 46 95 51 352 354 344 332 328 333 333 325 329 338 331 329 329 319 318 328 326 318 314 310 303 306 312 290 276 273 274 269 273 289 298 300 273 249 272 292 292 297 297 284 289 310 301 284 302 333 335 297 267 304 28 321 278 255 218 222 226 229 234 235 236 238 236 234 231 226 228 235
352 349 349 351 354 355 352 355 0 9 17 8 12 26 28 35 32 74 105 2 346 349 346 343 350 0 1 3 15 14 357 348 342 325 318 325 324 322 318 309 313 321 316 289 276 273 271 266 264 273 282 284 268 249 260 284 293 296 293 284 291 302 297 287 298 324 337 295 252 88 50 27 304 251 224 228 230 222 225 229 231 235 234 233 233 233 233 234
352 349 350 350 352 351 350 1 13 23 18 2 16 30 28 33 37 77 67 349 340 342 352 6 31 24 18 17 18 14 9 7 1 354 346 345 352 357 348 330 329 335 329 323 321 303 284 277 266 258 262 270 268 256 249 261 275 287 307 306 304 307 301 293 303 327 335 265 235 91 342 332 275 246 235 219 218 214 219 223 225 228 228 228 230 232 234 235
353 350 349 349 350 350 354 12 25 28 19 1 15 28 33 45 41 49 357 348 350 348 354 9 27 24 34 27 16 8 10 11 2 4 1 357 5 11 8 355 345 343 344 353 350 346 351 335 280 259 259 261 266 267 254 251 263 278 323 329 324 341 329 313 319 326 228 256 276 326 329 309 252 258 253 231 219 218 223 224 222 223 222 223 225 226 228 231
353 349 347 349 351 357 7 20 25 26 18 9 17 28 41 75 47 22 359 357 358 353 351 347 20 41 48 17 4 356 359 3 358 356 348 347 1 13 18 6 358 354 338 349 350 351 11 36 25 355 307 279 275 272 264 264 268 276 346 345 315 75 31 314 298 314 276 280 289 314 332 304 271 268 253 244 240 233 232 226 222 223 221 221 222 220 220 226
352 347 346 349 352 5 19 23 25 26 20 19 23 27 43 68 45 7 3 359 352 353 354 326 4 58 49 11 359 350 355 3 3 357 342 342 7 25 31 17 11 11 345 345 349 347 354 3 10 10 349 330 313 285 266 267 276 277 306 331 284 236 108 251 269 286 292 304 304 311 330 261 253 258 249 248 245 238 234 222 215 218 220 222 222 217 216 223
351 346 346 351 357 13 23 24 24 19 18 25 22 27 46 63 26 6 2 354 350 354 1 332 335 359 16 10 4 358 3 3 2 7 15 36 50 42 37 23 15 22 4 351 344 336 324 300 330 342 329 326 324 316 269 256 268 272 262 270 290 284 272 284 289 276 285 316 306 295 278 249 251 256 253 252 248 240 230 223 220 218 219 222 222 219 219 225
353 349 346 352 6 20 25 27 22 12 21 31 19 28 45 38 10 3 356 352 354 356 1 353 350 358 358 357 358 4 13 8 4 12 33 55 71 55 49 38 20 30 15 354 338 336 320 295 306 322 332 343 339 337 288 244 249 260 259 265 268 252 267 295 300 290 298 307 281 281 276 267 267 265 259 253 251 244 230 225 229 226 223 225 226 225 227 233
356 352 346 350 2 9 14 27 22 17 28 34 27 34 38 16 4 1 355 356 360 358 0 2 3 2 355 353 355 0 9 10 7 11 16 20 10 352 18 41 0 354 9 2 0 8 328 300 305 326 345 6 357 315 294 249 241 241 245 253 245 242 258 275 298 316 330 295 270 271 270 272 277 272 261 253 248 243 234 230 236 239 232 229 232 235 239 244
359 355 348 349 353 349 354 12 20 25 34 31 31 39 31 10 2 1 359 359 359 0 4 5 1 355 352 353 354 357 2 3 3 4 1 3 360 342 331 301 235 263 335 351 273 317 327 307 309 339 317 333 353 279 272 258 240 234 225 214 223 251 264 264 265 318 292 269 287 272 265 272 270 261 257 254 248 244 239 237 242 247 242 235 239 246 250 253
359 356 349 351 352 340 347 0 5 17 35 33 34 36 23 8 1 2 2 357 356 358 2 2 355 349 351 353 351 353 356 353 352 353 348 345 350 345 333 294 244 239 257 331 287 283 313 311 303 309 305 312 329 292 261 255 240 225 214 214 240 259 260 261 252 237 232 229 281 289 285 268 260 256 256 257 255 252 248 245 245 245 245 243 246 256 258 252
356 353 350 355 1 348 352 356 335 343 20 36 39 33 16 5 3 5 4 359 357 358 1 357 348 345 350 352 348 347 348 346 347 349 345 344 349 352 346 307 282 248 236 262 290 280 282 292 286 290 298 297 286 260 252 271 267 242 230 231 244 246 245 253 249 237 235 219 224 253 276 265 260 257 259 261 261 260 257 255 251 247 248 249 250 259 262 252
355 354 351 354 359 4 8 4 345 342 358 28 44 31 17 9 5 6 5 1 1 4 7 357 345 347 350 348 344 343 345 345 351 357 354 352 353 349 338 320 306 281 260 253 253 264 275 281 282 288 295 295 276 232 221 246 260 270 274 264 257 250 246 247 242 236 235 231 239 241 271 268 264 261 262 263 262 262 262 260 258 254 251 250 249 253 258 254
359 354 350 352 354 358 2 360 1 3 4 32 40 20 15 14 3 359 0 2 4 6 8 359 350 351 350 345 343 343 345 347 357 4 359 357 359 349 335 328 319 311 294 260 242 262 287 287 284 287 290 294 293 262 229 231 245 266 278 274 274 269 255 249 249 254 247 244 256 266 282 271 268 265 265 265 261 259 260 259 257 254 252 251 248 247 250 251
1 354 347 350 355 354 351 0 25 47 47 43 31 1 4 11 359 353 358 3 2 359 1 360 354 352 350 346 343 344 349 355 0 1 2 5 9 3 349 337 327 322 315 283 255 260 286 290 291 294 297 303 309 286 227 222 234 254 267 271 273 273 266 266 283 289 281 264 264 274 275 271 273 272 266 267 267 263 261 258 251 247 247 249 248 247 248 249
360 357 346 345 351 350 350 5 38 59 47 37 22 355 357 4 2 358 360 360 354 349 354 357 352 347 343 339 341 349 356 360 354 356 4 10 13 16 8 346 330 316 294 279 271 279 290 293 305 311 318 328 348 56 127 230 242 258 266 267 265 276 290 292 295 296 287 263 260 250 250 263 270 275 269 269 271 268 265 263 255 246 245 246 245 246 248 248
356 1 350 338 338 344 354 13 43 44 28 20 5 349 340 351 358 354 353 359 356 350 352 354 346 334 332 336 345 356 0 357 352 354 3 8 14 19 8 356 7 1 310 261 261 283 289 284 291 297 299 307 303 304 306 297 291 285 278 273 272 280 292 300 303 297 285 274 259 239 250 265 268 269 271 271 270 268 266 265 261 254 249 247 245 245 246 247
351 358 357 343 333 343 3 33 55 27 12 5 1 352 329 342 352 339 343 3 6 358 356 353 341 331 338 347 351 359 1 356 354 355 358 2 11 15 6 2 26 26 11 307 265 275 286 288 291 285 269 271 282 288 293 292 291 289 286 285 283 282 288 299 301 284 277 287 274 256 258 272 273 272 273 273 272 272 270 267 265 261 255 251 249 247 246 247
350 350 357 1 358 358 35 76 61 27 20 9 360 343 323 336 344 333 351 10 5 354 354 352 347 348 359 354 348 358 2 358 355 355 356 359 5 11 5 351 0 15 17 358 314 290 293 297 305 300 290 290 295 298 300 293 285 284 287 289 291 290 290 291 289 282 281 282 273 269 271 273 273 275 276 277 277 276 275 272 268 265 259 253 251 250 248 248
353 349 353 1 6 8 72 79 21 17 38 29 346 325 330 348 355 345 1 14 356 345 351 355 0 14 13 357 350 356 1 358 356 355 355 355 357 4 5 345 336 360 13 0 340 329 310 307 318 316 307 309 310 308 308 297 285 282 283 286 293 299 297 294 293 290 284 273 270 277 281 275 273 275 276 276 277 275 274 273 271 268 263 255 250 248 247 245
351 353 357 358 0 2 4 22 7 12 41 35 327 325 344 4 3 353 5 12 345 342 354 0 9 19 14 6 360 358 359 354 348 348 352 350 342 341 341 326 314 332 344 344 337 333 316 312 324 321 314 319 323 322 319 304 291 288 283 289 322 328 321 317 314 308 295 281 278 284 284 276 274 275 277 277 276 275 272 269 267 265 263 257 249 244 243 241
348 354 2 358 356 2 355 328 323 346 19 338 323 333 343 355 354 349 5 6 337 335 346 355 4 7 6 9 2 357 356 348 339 339 345 342 337 340 339 327 324 335 343 349 350 346 326 319 333 331 319 330 346 340 330 318 308 305 291 296 344 346 342 335 327 322 310 294 290 291 286 279 279 284 285 283 280 280 278 271 264 260 259 258 250 242 239 237
349 353 359 355 353 7 9 259 267 288 311 307 316 324 322 334 342 338 349 19 358 344 340 350 360 357 358 1 358 357 356 348 343 342 343 345 1 20 23 18 19 16 11 10 2 356 341 328 338 335 313 323 342 340 334 325 313 301 277 349 358 354 346 339 331 325 318 310 304 297 286 284 295 304 302 295 290 288 285 280 271 259 254 254 250 241 234 232
349 349 353 357 356 357 358 273 276 283 293 305 308 305 310 324 338 334 338 28 27 2 345 352 356 351 350 354 355 358 357 356 2 2 1 15 33 41 46 47 44 34 21 14 3 1 355 338 339 334 306 314 338 341 336 329 313 241 175 5 2 356 346 336 330 327 324 316 305 294 291 301 312 314 310 307 304 296 287 283 276 264 254 249 247 241 233 229
Height
3134 3132 3130 3129 3127 3125 3123 3122 3120 3118 3116 3114 3112 3110 3108 3106 3104 3101 3099 3097 3095 3093 3091 3090 3088 3087 3086 3085 3084 3083 3082 3081 3080 3079 3078 3077 3077 3078 3079 3079 3079 3080 3080 3081 3083 3084 3085 3088 3090 3093 3095 3097 3098 3102 3106 3106 3109 3109 3108 3107 3104 3105 3108 3111 3115 3118 3120 3124 3128 3131 3134 3135 3136 3138 3140 3141 3141 3142 3144 3143 3143 3145 3146 3147 3149 3149 3149 3150
3133 3131 3129 3128 3126 3124 3122 3120 3118 3116 3114 3112 3110 3108 3106 3104 3101 3099 3097 3095 3093 3092 3090 3088 3087 3085 3084 3084 3083 3082 3081 3080 3079 3077 3077 3076 3076 3076 3077 3078 3078 3078 3079 3079 3080 3081 3083 3085 3087 3088 3090 3092 3094 3099 3102 3103 3105 3104 3103 3103 3100 3102 3107 3111 3115 3118 3121 3124 3127 3129 3131 3133 3135 3136 3137 3139 3139 3140 3141 3141 3141 3142 3145 3146 3147 3147 3147 3149
3132 3130 3128 3126 3124 3123 3121 3119 3117 3115 3113 3111 3109 3106 3104 3102 3099 3097 3095 3093 3092 3090 3088 3087 3085 3084 3083 3083 3082 3081 3080 3079 3078 3077 3076 3075 3075 3075 3075 3076 3076 3077 3077 3078 3078 3080 3081 3083 3085 3085 3086 3088 3090 3095 3098 3099 3101 3100 3101 3099 3097 3103 3108 3110 3114 3117 3121 3124 3126 3128 3129 3131 3133 3134 3135 3137 3137 3138 3138 3137 3137 3139 3141 3143 3145 3145 3146 3147
3131 3129 3127 3125 3123 3121 3119 3117 3115 3113 3111 3109 3107 3105 3102 3100 3098 3095 3093 3092 3090 3088 3087 3085 3084 3083 3083 3082 3081 3080 3080 3078 3077 3077 3075 3075 3074 3074 3074 3075 3075 3075 3076 3076 3077 3078 3079 3081 3082 3083 3084 3085 3088 3091 3093 3095 3097 3097 3097 3095 3098 3105 3106 3108 3113 3116 3119 3122 3124 3125 3127 3128 3130 3132 3133 3136 3135 3135 3135 3134 3135 3137 3139 3141 3142 3143 3143 3145
3130 3128 3126 3124 3122 3120 3118 3116 3114 3112 3110 3107 3105 3103 3100 3098 3096 3094 3092 3090 3088 3087 3086 3084 3083 3082 3082 3081 3080 3080 3079 3078 3077 3076 3075 3075 3074 3074 3074 3074 3074 3075 3075 3076 3076 3077 3078 3080 3081 3082 3082 3083 3086 3087 3088 3092 3094 3094 3094 3095 3099 3103 3104 3107 3111 3114 3117 3120 3121 3122 3123 3124 3127 3129 3130 3134 3133 3132 3133 3133 3134 3136 3138 3140 3141 3142 3143 3144
3129 3127 3125 3123 3121 3118 3116 3114 3112 3110 3108 3106 3103 3101 3098 3096 3094 3092 3090 3088 3087 3085 3084 3083 3082 3081 3080 3080 3080 3079 3078 3078 3077 3076 3075 3074 3074 3074 3073 3073 3074 3074 3075 3075 3076 3076 3078 3079 3080 3081 3081 3082 3083 3084 3086 3090 3092 3091 3091 3095 3098 3100 3102 3106 3110 3113 3116 3117 3118 3119 3121 3123 3124 3125 3127 3131 3132 3130 3130 3130 3131 3131 3134 3138 3141 3143 3143 3144
3128 3126 3124 3122 3119 3117 3115 3113 3111 3109 3106 3104 3101 3099 3097 3095 3093 3091 3089 3087 3085 3084 3082 3082 3081 3080 3079 3079 3079 3078 3078 3077 3076 3075 3075 3074 3074 3073 3073 3073 3073 3073 3074 3074 3075 3076 3077 3078 3079 3080 3080 3081 3082 3083 3085 3088 3090 3089 3089 3093 3096 3098 3101 3105 3108 3110 3113 3115 3116 3118 3119 3120 3121 3122 3124 3127 3129 3130 3127 3127 3128 3129 3132 3135 3139 3142 3143 3144
3127 3125 3123 3120 3118 3116 3114 3112 3110 3107 3105 3102 3100 3097 3095 3093 3091 3089 3087 3086 3084 3082 3081 3080 3079 3079 3078 3078 3078 3077 3077 3077 3076 3075 3075 3074 3073 3073 3073 3073 3073 3073 3074 3074 3074 3075 3076 3077 3079 3080 3079 3080 3081 3082 3084 3086 3087 3086 3087 3091 3094 3096 3099 3103 3105 3106 3109 3112 3115 3117 3115 3115 3117 3120 3121 3123 3127 3128 3127 3128 3129 3129 3130 3132 3136 3140 3142 3143
3126 3124 3122 3119 3117 3115 3113 3110 3108 3106 3104 3101 3098 3096 3094 3092 3090 3088 3086 3084 3083 3082 3080 3079 3078 3078 3077 3077 3077 3076 3076 3076 3075 3075 3074 3073 3073 3073 3072 3072 3072 3073 3073 3073 3074 3075 3075 3076 3077 3077 3077 3078 3080 3081 3083 3084 3084 3085 3087 3090 3092 3094 3097 3101 3102 3103 3106 3108 3111 3113 3111 3110 3113 3117 3117 3119 3124 3126 3127 3127 3127 3127 3128 3130 3134 3138 3140 3141
3125 3123 3120 3118 3116 3113 3111 3109 3107 3105 3102 3100 3097 3095 3093 3091 3089 3087 3085 3084 3082 3081 3080 3079 3078 3077 3077 3077 3076 3076 3076 3074 3073 3073 3073 3073 3073 3072 3072 3072 3072 3072 3073 3073 3074 3074 3073 3073 3073 3073 3074 3076 3077 3078 3081 3082 3082 3084 3086 3088 3089 3091 3094 3098 3099 3101 3103 3106 3108 3109 3108 3108 3110 3113 3112 3115 3120 3123 3124 3124 3124 3125 3126 3129 3131 3134 3137 3139
3124 3122 3119 3117 3115 3113 3110 3108 3106 3103 3101 3099 3096 3094 3092 3090 3088 3086 3085 3083 3082 3081 3080 3079 3078 3077 3077 3076 3076 3076 3075 3074 3073 3072 3071 3072 3072 3072 3071 3071 3072 3072 3072 3072 3073 3073 3072 3072 3072 3072 3073 3074 3074 3076 3078 3080 3081 3082 3084 3085 3086 3089 3092 3094 3096 3099 3101 3102 3105 3107 3107 3107 3107 3108 3108 3112 3118 3119 3119 3120 3121 3123 3124 3127 3130 3133 3137 3138
3123 3121 3118 3116 3114 3111 3109 3107 3105 3102 3100 3098 3096 3093 3091 3089 3088 3086 3084 3083 3082 3081 3080 3079 3078 3077 3076 3076 3076 3076 3075 3074 3073 3071 3071 3071 3071 3071 3071 3071 3071 3071 3071 3072 3073 3073 3072 3072 3071 3072 3073 3073 3074 3075 3077 3078 3079 3080 3081 3082 3084 3087 3089 3091 3093 3096 3098 3097 3102 3107 3106 3105 3103 3103 3106 3112 3116 3117 3116 3116 3118 3120 3121 3125 3129 3132 3135 3136
3122 3120 3117 3115 3113 3110 3108 3106 3103 3101 3099 3097 3095 3092 3090 3089 3087 3086 3084 3083 3082 3081 3080 3079 3078 3077 3077 3077 3076 3076 3075 3073 3072 3071 3071 3070 3070 3070 3070 3070 3070 3070 3070 3071 3072 3072 3072 3071 3071 3072 3072 3073 3074 3075 3076 3077 3077 3078 3080 3081 3083 3085 3085 3087 3091 3094 3096 3095 3099 3105 3103 3101 3100 3100 3105 3111 3115 3116 3115 3115 3117 3118 3119 3121 3126 3129 3131 3133
3121 3119 3116 3114 3112 3109 3107 3105 3103 3100 3098 3096 3094 3092 3090 3088 3087 3086 3084 3083 3082 3081 3080 3079 3078 3078 3077 3077 3077 3076 3074 3073 3072 3071 3071 3070 3070 3070 3070 3070 3069 3070 3070 3070 3071 3071 3072 3072 3071 3072 3072 3073 3074 3074 3075 3076 3076 3077 3078 3080 3081 3082 3082 3085 3089 3091 3093 3093 3097 3101 3099 3097 3098 3099 3103 3109 3112 3114 3114 3114 3116 3116 3116 3118 3123 3127 3128 3130
3120 3118 3115 3113 3111 3108 3106 3104 3102 3100 3097 3095 3093 3091 3089 3088 3087 3085 3084 3083 3082 3081 3080 3079 3079 3078 3078 3078 3077 3076 3074 3073 3073 3072 3071 3071 3070 3070 3070 3069 3069 3069 3069 3070 3070 3071 3071 3072 3072 3072 3072 3073 3073 3073 3074 3075 3075 3077 3077 3078 3080 3081 3081 3084 3087 3088 3090 3093 3095 3097 3094 3093 3095 3096 3101 3106 3109 3111 3111 3112 3114 3115 3114 3116 3121 3124 3127 3129
3120 3117 3114 3112 3110 3107 3105 3102 3100 3099 3096 3094 3092 3091 3089 3088 3086 3085 3084 3083 3082 3081 3080 3079 3079 3079 3079 3078 3077 3075 3074 3074 3073 3072 3072 3071 3071 3070 3070 3069 3068 3068 3069 3069 3070 3070 3071 3071 3071 3071 3071 3072 3073 3073 3074 3074 3074 3075 3076 3077 3078 3080 3081 3082 3084 3086 3088 3091 3093 3092 3089 3090 3094 3095 3098 3103 3107 3109 3108 3110 3112 3112 3112 3115 3119 3122 3125 3128
3119 3116 3114 3111 3109 3106 3104 3101 3099 3097 3095 3093 3092 3090 3089 3087 3086 3085 3084 3083 3082 3082 3081 3080 3079 3079 3079 3078 3076 3076 3075 3075 3074 3073 3073 3072 3071 3070 3070 3070 3069 3068 3069 3069 3070 3070 3070 3070 3070 3070 3070 3071 3072 3073 3073 3074 3074 3074 3075 3076 3077 3079 3080 3080 3082 3084 3087 3088 3090 3088 3086 3088 3092 3094 3097 3100 3104 3106 3106 3107 3108 3109 3109 3113 3117 3121 3123 3126
3118 3116 3113 3110 3108 3105 3103 3101 3098 3096 3093 3092 3091 3090 3089 3087 3085 3085 3084 3083 3083 3082 3081 3080 3079 3078 3078 3078 3077 3076 3076 3075 3075 3074 3073 3072 3071 3071 3071 3071 3070 3070 3070 3070 3070 3070 3070 3070 3069 3069 3069 3070 3071 3072 3073 3073 3074 3074 3075 3076 3077 3077 3078 3079 3080 3081 3084 3085 3086 3085 3083 3086 3090 3092 3095 3098 3101 3103 3103 3104 3106 3107 3107 3109 3115 3119 3121 3123
3118 3115 3113 3110 3107 3104 3102 3100 3098 3095 3093 3091 3089 3088 3087 3086 3085 3084 3084 3083 3083 3083 3082 3080 3079 3079 3079 3078 3078 3078 3077 3076 3076 3075 3074 3073 3072 3072 3072 3072 3071 3071 3070 3070 3070 3070 3070 3069 3069 3069 3069 3070 3070 3071 3072 3073 3074 3074 3074 3075 3076 3076 3077 3077 3078 3079 3081 3081 3082 3081 3081 3084 3087 3089 3092 3095 3098 3100 3101 3101 3103 3106 3106 3106 3110 3115 3118 3121
3117 3115 3112 3109 3107 3104 3101 3099 3097 3095 3093 3092 3090 3088 3087 3086 3085 3084 3084 3084 3084 3083 3082 3081 3080 3080 3079 3079 3080 3079 3078 3078 3076 3075 3075 3073 3072 3073 3072 3071 3071 3071 3071 3071 3070 3070 3070 3069 3070 3069 3069 3070 3071 3071 3072 3073 3074 3073 3073 3074 3074 3075 3075 3076 3077 3077 3079 3079 3077 3078 3078 3080 3084 3086 3087 3091 3095 3097 3098 3100 3101 3103 3105 3105 3107 3111 3115 3119
3117 3114 3112 3109 3107 3104 3101 3098 3096 3095 3093 3092 3091 3089 3087 3086 3085 3085 3085 3084 3084 3083 3083 3082 3081 3080 3079 3080 3080 3079 3079 3078 3076 3075 3075 3074 3073 3073 3072 3071 3071 3071 3070 3070 3070 3070 3070 3069 3069 3070 3070 3071 3071 3071 3072 3072 3073 3072 3072 3072 3073 3073 3073 3074 3075 3076 3078 3077 3074 3075 3076 3077 3081 3083 3084 3086 3090 3093 3095 3098 3100 3102 3103 3103 3105 3108 3112 3116
3116 3114 3111 3109 3106 3104 3101 3098 3096 3094 3092 3091 3090 3088 3087 3086 3085 3085 3085 3085 3084 3083 3083 3082 3082 3081 3081 3081 3080 3079 3078 3078 3076 3075 3075 3074 3073 3072 3072 3071 3070 3070 3070 3070 3069 3069 3069 3068 3069 3070 3070 3071 3071 3071 3071 3071 3071 3071 3071 3071 3072 3071 3071 3072 3073 3074 3075 3073 3072 3072 3073 3075 3079 3081 3082 3083 3085 3089 3092 3095 3098 3100 3101 3103 3104 3106 3109 3112
3116 3113 3111 3108 3106 3103 3101 3099 3096 3094 3092 3091 3089 3087 3086 3086 3085 3085 3084 3085 3084 3084 3084 3083 3082 3082 3081 3081 3080 3079 3078 3077 3076 3075 3074 3073 3073 3072 3071 3070 3070 3070 3070 3069 3069 3068 3068 3068 3068 3069 3069 3070 3070 3070 3070 3070 3070 3070 3070 3070 3070 3071 3071 3071 3071 3072 3072 3071 3071 3070 3070 3073 3076 3079 3080 3081 3083 3086 3089 3092 3095 3098 3099 3100 3102 3103 3105 3108
3115 3113 3110 3108 3106 3103 3101 3098 3096 3094 3092 3091 3089 3088 3087 3086 3085 3085 3085 3085 3085 3084 3084 3083 3083 3082 3082 3081 3080 3079 3078 3077 3076 3074 3073 3073 3072 3072 3071 3070 3070 3070 3069 3069 3068 3068 3068 3068 3068 3068 3068 3068 3068 3068 3068 3068 3068 3068 3069 3069 3069 3070 3070 3070 3070 3070 3070 3071 3070 3069 3069 3069 3072 3075 3077 3080 3081 3082 3086 3088 3091 3094 3096 3098 3100 3102 3104 3106
3115 3112 3110 3107 3105 3103 3100 3098 3095 3094 3092 3091 3089 3088 3087 3086 3085 3085 3085 3085 3085 3085 3084 3084 3084 3083 3083 3081 3080 3079 3077 3077 3076 3074 3073 3073 3072 3072 3071 3070 3070 3069 3069 3068 3068 3067 3067 3068 3068 3067 3067 3067 3067 3067 3067 3067 3067 3066 3067 3068 3069 3069 3069 3069 3069 3069 3069 3070 3069 3070 3070 3069 3068 3070 3073 3077 3079 3079 3083 3085 3087 3091 3093 3095 3097 3100 3102 3104
3114 3112 3109 3107 3105 3102 3100 3098 3096 3094 3092 3091 3090 3089 3087 3086 3085 3085 3085 3085 3085 3085 3085 3084 3084 3083 3082 3081 3080 3078 3077 3076 3075 3074 3074 3073 3072 3071 3071 3071 3070 3069 3069 3068 3067 3067 3067 3067 3067 3067 3066 3065 3066 3066 3066 3067 3066 3065 3066 3067 3068 3067 3068 3067 3067 3068 3068 3069 3069 3070 3072 3069 3067 3067 3069 3074 3075 3076 3079 3081 3084 3087 3090 3092 3094 3097 3099 3101
3114 3111 3109 3107 3104 3102 3100 3097 3096 3094 3092 3091 3090 3089 3088 3086 3085 3085 3085 3085 3086 3086 3085 3084 3084 3082 3081 3081 3079 3077 3076 3075 3075 3074 3074 3073 3072 3072 3071 3070 3070 3069 3069 3068 3067 3066 3066 3066 3066 3066 3065 3065 3065 3065 3066 3066 3065 3065 3065 3066 3066 3066 3066 3066 3067 3067 3067 3067 3067 3069 3070 3069 3067 3065 3067 3070 3072 3073 3075 3078 3081 3084 3088 3090 3092 3095 3097 3099
3113 3111 3109 3106 3104 3102 3100 3097 3095 3094 3092 3091 3090 3089 3088 3086 3086 3085 3085 3086 3088 3086 3085 3084 3083 3082 3081 3080 3079 3077 3076 3075 3074 3074 3073 3073 3072 3071 3071 3070 3070 3069 3069 3068 3067 3066 3066 3065 3065 3065 3065 3065 3065 3065 3065 3064 3064 3063 3064 3064 3064 3064 3065 3065 3066 3066 3066 3066 3066 3067 3068 3069 3067 3065 3066 3068 3070 3071 3072 3075 3078 3081 3085 3088 3090 3093 3094 3096
3113 3110 3108 3106 3104 3102 3100 3097 3095 3093 3093 3092 3091 3090 3088 3086 3086 3085 3085 3087 3088 3086 3085 3084 3082 3081 3080 3079 3078 3077 3077 3075 3074 3074 3073 3073 3072 3071 3070 3069 3069 3068 3068 3067 3066 3065 3065 3065 3064 3064 3064 3064 3064 3064 3064 3064 3063 3062 3062 3062 3062 3063 3063 3063 3064 3064 3065 3064 3064 3065 3067 3068 3066 3064 3065 3067 3068 3070 3071 3073 3075 3078 3081 3084 3088 3091 3092 3094
3112 3110 3107 3105 3103 3101 3099 3097 3095 3094 3093 3092 3091 3089 3088 3087 3086 3085 3087 3088 3087 3086 3085 3083 3082 3081 3079 3078 3077 3077 3076 3075 3074 3073 3073 3073 3072 3071 3070 3069 3068 3067 3066 3066 3065 3064 3064 3064 3064 3064 3064 3064 3063 3063 3063 3064 3063 3062 3062 3061 3061 3062 3061 3062 3062 3063 3064 3063 3063 3064 3066 3068 3066 3063 3063 3065 3067 3068 3069 3071 3072 3075 3078 3081 3084 3087 3089 3090
3112 3109 3107 3105 3103 3101 3099 3097 3096 3094 3093 3092 3091 3089 3088 3087 3086 3086 3089 3089 3087 3086 3085 3083 3082 3081 3079 3078 3077 3077 3076 3075 3074 3073 3072 3072 3071 3070 3069 3068 3067 3066 3065 3065 3064 3064 3063 3063 3063 3064 3064 3064 3063 3063 3063 3063 3063 3063 3062 3061 3061 3060 3059 3060 3060 3062 3063 3062 3061 3063 3065 3066 3066 3062 3061 3063 3064 3066 3067 3068 3069 3071 3074 3077 3080 3082 3084 3086
3112 3109 3107 3105 3103 3101 3099 3097 3095 3094 3093 3092 3091 3088 3088 3087 3087 3088 3089 3088 3087 3086 3084 3083 3082 3081 3080 3079 3077 3077 3076 3075 3074 3073 3072 3071 3070 3069 3069 3068 3067 3066 3065 3065 3064 3063 3062 3062 3063 3063 3064 3064 3064 3063 3063 3063 3063 3063 3063 3062 3062 3062 3061 3060 3060 3061 3062 3060 3060 3062 3063 3064 3063 3061 3060 3061 3062 3063 3065 3066 3067 3068 3069 3072 3075 3078 3079 3081
3112 3109 3107 3105 3103 3101 3099 3097 3096 3094 3093 3091 3090 3089 3088 3087 3089 3090 3089 3088 3087 3086 3084 3083 3083 3082 3080 3078 3077 3077 3077 3075 3074 3073 3071 3070 3070 3069 3069 3068 3068 3067 3066 3065 3064 3063 3062 3062 3062 3063 3063 3064 3064 3064 3063 3063 3063 3063 3063 3063 3063 3064 3065 3065 3063 3062 3061 3058 3059 3061 3062 3062 3061 3060 3059 3059 3060 3061 3062 3063 3065 3065 3067 3069 3072 3074 3075 3076
3111 3109 3107 3105 3103 3101 3099 3098 3096 3094 3093 3091 3090 3089 3088 3088 3090 3091 3089 3088 3087 3086 3084 3084 3083 3082 3081 3079 3078 3077 3076 3075 3074 3072 3071 3070 3070 3070 3069 3069 3068 3067 3067 3066 3064 3064 3063 3063 3063 3063 3063 3063 3064 3063 3063 3063 3063 3064 3064 3064 3064 3064 3066 3066 3065 3064 3062 3059 3057 3059 3061 3059 3057 3057 3057 3058 3058 3059 3060 3062 3063 3064 3066 3068 3069 3071 3073 3074
3111 3108 3107 3105 3103 3101 3099 3097 3096 3094 3093 3092 3090 3089 3089 3090 3091 3090 3089 3087 3086 3085 3084 3084 3083 3082 3081 3080 3080 3079 3077 3076 3074 3072 3071 3071 3070 3070 3070 3070 3069 3068 3067 3066 3065 3065 3064 3064 3064 3063 3063 3063 3063 3062 3062 3062 3062 3063 3063 3064 3065 3065 3065 3066 3066 3064 3064 3062 3058 3057 3058 3056 3054 3054 3055 3056 3056 3057 3059 3060 3061 3063 3064 3066 3067 3069 3071 3073
3110 3108 3106 3105 3103 3101 3099 3098 3096 3095 3093 3092 3090 3089 3090 3091 3091 3090 3089 3087 3086 3084 3084 3083 3082 3081 3080 3079 3079 3079 3078 3076 3074 3073 3072 3071 3071 3070 3070 3070 3069 3068 3067 3066 3066 3065 3064 3063 3063 3063 3062 3062 3062 3062 3061 3061 3062 3062 3063 3064 3065 3065 3065 3066 3066 3064 3065 3065 3060 3057 3055 3053 3053 3052 3052 3054 3055 3055 3057 3058 3059 3060 3061 3063 3065 3067 3069 3070
3110 3108 3106 3104 3102 3101 3099 3098 3096 3094 3093 3092 3091 3090 3091 3091 3090 3090 3089 3087 3086 3085 3083 3082 3081 3081 3080 3079 3078 3078 3077 3076 3075 3074 3073 3072 3071 3071 3071 3070 3069 3069 3068 3067 3066 3066 3064 3062 3061 3062 3061 3060 3061 3061 3060 3061 3061 3061 3063 3064 3064 3064 3065 3066 3066 3065 3066 3066 3061 3057 3054 3052 3053 3051 3049 3052 3053 3053 3055 3056 3057 3057 3058 3060 3062 3065 3067 3067
3109 3108 3106 3103 3101 3100 3098 3097 3095 3094 3094 3093 3092 3092 3092 3091 3090 3090 3088 3087 3086 3085 3084 3083 3082 3082 3081 3080 3079 3077 3077 3076 3075 3074 3073 3073 3072 3070 3070 3069 3068 3068 3068 3068 3066 3065 3065 3062 3060 3061 3060 3060 3060 3059 3060 3060 3060 3061 3062 3063 3063 3064 3065 3065 3066 3066 3067 3067 3062 3057 3054 3052 3051 3048 3047 3049 3051 3052 3053 3054 3054 3055 3055 3056 3058 3062 3065 3065
3108 3107 3105 3103 3101 3099 3098 3097 3095 3095 3094 3093 3092 3092 3092 3091 3091 3090 3088 3087 3086 3085 3084 3083 3082 3082 3081 3080 3079 3077 3077 3076 3075 3074 3073 3072 3072 3069 3068 3067 3067 3067 3067 3067 3066 3065 3065 3063 3061 3060 3060 3060 3059 3059 3060 3060 3060 3061 3062 3063 3063 3064 3064 3064 3065 3065 3065 3066 3063 3059 3055 3049 3045 3045 3046 3048 3049 3051 3052 3052 3053 3054 3055 3055 3055 3057 3060 3062
3107 3106 3105 3102 3100 3099 3098 3097 3096 3095 3094 3093 3092 3092 3092 3092 3091 3090 3088 3087 3086 3085 3084 3083 3082 3082 3081 3080 3079 3078 3077 3076 3075 3074 3072 3072 3071 3068 3067 3067 3066 3066 3066 3066 3065 3064 3065 3064 3061 3059 3059 3060 3059 3059 3059 3059 3061 3061 3061 3062 3062 3063 3064 3063 3063 3063 3063 3063 3062 3060 3054 3043 3038 3043 3046 3047 3048 3048 3050 3050 3051 3052 3053 3053 3053 3054 3056 3058
3107 3105 3103 3101 3099 3098 3097 3096 3096 3095 3094 3093 3093 3092 3092 3092 3091 3090 3088 3087 3086 3085 3084 3083 3082 3082 3081 3080 3079 3078 3077 3076 3075 3074 3072 3071 3070 3068 3067 3066 3065 3064 3065 3065 3065 3064 3064 3063 3061 3059 3058 3058 3058 3059 3059 3059 3060 3060 3061 3061 3061 3062 3062 3061 3061 3060 3060 3060 3058 3059 3052 3035 3031 3041 3043 3044 3046 3046 3047 3048 3048 3049 3049 3050 3051 3051 3053 3054
3106 3104 3102 3100 3099 3098 3097 3096 3096 3094 3093 3093 3093 3092 3092 3092 3091 3090 3089 3087 3086 3085 3084 3084 3082 3082 3081 3080 3079 3078 3077 3076 3074 3074 3072 3071 3070 3068 3066 3064 3064 3063 3063 3063 3063 3063 3063 3062 3060 3059 3058 3058 3057 3057 3058 3058 3059 3060 3060 3060 3060 3061 3061 3060 3061 3059 3059 3059 3056 3059 3051 3027 3023 3037 3040 3040 3044 3043 3044 3045 3044 3045 3045 3045 3046 3047 3049 3051
3105 3104 3102 3100 3099 3098 3097 3097 3095 3094 3094 3093 3093 3093 3092 3092 3091 3090 3088 3087 3086 3085 3084 3083 3082 3082 3081 3080 3079 3078 3077 3075 3074 3073 3072 3071 3069 3068 3066 3064 3064 3063 3063 3063 3062 3063 3063 3062 3060 3058 3057 3056 3055 3055 3056 3057 3058 3058 3059 3059 3059 3060 3060 3060 3060 3058 3058 3057 3054 3059 3050 3024 3020 3033 3036 3037 3040 3039 3040 3041 3041 3041 3041 3041 3042 3043 3044 3046
3105 3103 3101 3100 3099 3098 3097 3096 3095 3094 3094 3094 3094 3093 3092 3091 3090 3089 3088 3087 3085 3085 3084 3083 3082 3081 3081 3080 3079 3078 3077 3075 3074 3073 3072 3070 3069 3067 3066 3064 3064 3063 3063 3063 3062 3062 3063 3062 3061 3059 3057 3055 3054 3055 3056 3056 3057 3057 3057 3058 3057 3058 3059 3058 3058 3057 3056 3053 3053 3056 3043 3023 3022 3031 3031 3034 3037 3035 3036 3037 3037 3037 3036 3037 3038 3038 3040 3041
3105 3103 3101 3099 3098 3098 3096 3095 3094 3094 3093 3093 3093 3093 3092 3091 3090 3088 3088 3087 3086 3085 3084 3083 3082 3082 3081 3080 3079 3078 3077 3076 3074 3072 3071 3069 3068 3067 3065 3064 3063 3062 3062 3062 3062 3062 3062 3061 3061 3060 3060 3058 3057 3057 3057 3056 3056 3055 3055 3056 3055 3056 3057 3055 3056 3056 3052 3050 3050 3047 3034 3020 3022 3028 3029 3031 3033 3032 3032 3033 3033 3034 3032 3033 3033 3034 3035 3036
3103 3103 3101 3099 3098 3097 3096 3095 3095 3094 3093 3092 3092 3092 3091 3090 3089 3088 3087 3087 3086 3085 3084 3083 3082 3081 3080 3079 3078 3078 3077 3075 3074 3072 3070 3069 3067 3066 3065 3064 3063 3062 3062 3061 3061 3061 3061 3060 3060 3059 3059 3058 3056 3056 3056 3056 3055 3053 3053 3053 3053 3054 3054 3054 3054 3051 3050 3049 3040 3036 3036 3024 3016 3020 3024 3025 3026 3027 3027 3027 3027 3028 3027 3028 3028 3028 3030 3031
3101 3101 3101 3099 3098 3097 3096 3095 3095 3094 3092 3091 3091 3091 3091 3090 3089 3088 3087 3086 3085 3084 3084 3083 3082 3081 3080 3079 3078 3077 3076 3074 3073 3071 3070 3069 3067 3067 3066 3064 3064 3063 3062 3062 3061 3061 3060 3058 3058 3058 3057 3056 3054 3053 3053 3053 3052 3051 3051 3051 3051 3052 3051 3051 3050 3047 3049 3046 3029 3026 3038 3028 3011 3013 3019 3019 3020 3020 3019 3019 3019 3019 3020 3020 3021 3021 3022 3024
3100 3099 3099 3098 3097 3097 3096 3095 3094 3093 3092 3091 3091 3091 3090 3089 3088 3087 3086 3086 3085 3084 3084 3083 3082 3081 3080 3079 3078 3076 3074 3073 3072 3071 3070 3068 3067 3066 3065 3065 3064 3063 3062 3062 3061 3060 3059 3057 3056 3056 3054 3052 3052 3051 3051 3050 3049 3048 3049 3048 3049 3050 3048 3047 3046 3044 3044 3040 3026 3024 3032 3022 3009 3011 3014 3013 3014 3013 3011 3010 3010 3009 3010 3010 3011 3012 3012 3015
3100 3099 3098 3097 3096 3095 3095 3094 3093 3092 3091 3091 3091 3090 3089 3088 3088 3087 3086 3085 3084 3084 3083 3083 3082 3081 3080 3079 3078 3076 3075 3073 3071 3070 3069 3068 3066 3065 3064 3064 3064 3063 3062 3061 3060 3059 3058 3056 3055 3054 3051 3049 3049 3049 3048 3047 3046 3046 3046 3047 3047 3047 3046 3044 3043 3041 3038 3033 3026 3025 3023 3011 3005 3009 3009 3006 3006 3004 3002 3001 2999 2998 2998 2999 3001 3002 3002 3005
3099 3098 3097 3096 3095 3094 3094 3094 3093 3091 3090 3090 3090 3089 3088 3088 3087 3086 3085 3084 3084 3083 3083 3082 3081 3080 3080 3079 3078 3077 3076 3074 3072 3070 3069 3068 3065 3063 3062 3062 3063 3063 3062 3060 3059 3058 3057 3055 3054 3052 3049 3047 3047 3047 3045 3044 3044 3043 3044 3046 3046 3044 3042 3041 3038 3036 3033 3028 3023 3022 3015 3003 3002 3006 3003 2999 2998 2994 2991 2990 2988 2987 2987 2988 2990 2991 2992 2995
3098 3098 3097 3096 3095 3094 3093 3093 3091 3090 3089 3089 3088 3088 3087 3087 3086 3085 3084 3084 3084 3083 3083 3082 3080 3079 3079 3078 3077 3076 3075 3074 3073 3071 3069 3068 3066 3063 3062 3062 3062 3062 3061 3059 3058 3057 3056 3053 3052 3051 3048 3045 3045 3045 3043 3041 3041 3041 3043 3044 3043 3040 3038 3036 3034 3031 3027 3023 3019 3016 3009 3000 2999 3001 2996 2991 2989 2985 2981 2978 2977 2976 2976 2977 2978 2980 2983 2985
3097 3096 3096 3095 3094 3093 3093 3092 3091 3089 3088 3087 3087 3087 3086 3086 3086 3084 3084 3083 3083 3083 3082 3081 3079 3079 3078 3077 3076 3075 3075 3073 3072 3071 3069 3068 3066 3065 3063 3063 3062 3061 3060 3059 3058 3056 3055 3052 3051 3050 3048 3045 3043 3043 3041 3039 3038 3039 3041 3041 3039 3036 3033 3030 3027 3024 3022 3019 3014 3009 3004 2998 2996 2993 2987 2982 2979 2975 2970 2967 2966 2964 2964 2965 2966 2969 2973 2976